{"data":{"norad_id":59224,"intl_designator":"2024-047A","name":"STRIX-3","alt_names":[],"object_type":"PAYLOAD","status":"ACTIVE","operator":null,"country":"JPN","launch_date":"2024-03-12","launch_site_code":"RLLB","launch_vehicle":null,"mission":null,"orbit_class":"UNKNOWN","rcs_meters":null,"size_class":null,"mass_kg":null,"dimensions":null,"purposes":[],"wikipedia_slug":null,"has_3d_model":false,"image_url":null,"decayed_at":null,"tle_current":{"epoch":"2026-05-25T04:34:37.053696Z","epoch_age_seconds":51930,"freshness":"FRESH","line1":"1 59224U 24047A   26145.19070664  .00007832  00000+0  37719-3 0  9999","line2":"2 59224  97.6615 120.5361 0014638 135.9749 224.2653 15.18941459121258","mean_motion":15.18941459,"eccentricity":0.0014638,"inclination_deg":97.6615,"raan_deg":120.5361,"arg_perigee_deg":135.9749,"mean_anomaly_deg":224.2653,"bstar":0.00037719,"rev_number":12125,"period_min":94.802863630309,"perigee_km":498.95706276153,"apogee_km":519.11995778541,"semimajor_km":6887.1755102735,"source":"CELESTRAK","updated_at":"2026-05-25T13:38:01.272560Z"}}}